Terug naar catalogus

CZ-3B DEB

ActiefHEO
NORAD 42474·DEBRIS·🇨🇳 China

Gelanceerd Dec 19, 2011 vanaf Xichang Satellite Launch Center

Loading…

Volgende Passages (komende 24 uur)

TLE

VerouderendSource: Space-Track

Epoch: Aug 27, 2026, 10:01 UTC

1 42474U 11077AP  26239.41764359 -.00000243  00000-0  00000-0 0  9998
2 42474  22.4632  75.4423 7184596  95.4748 342.7251  1.66948938 70032

Volg CZ-3B DEB in realtime met AllMySat

Download on the App Store